Simultaneous Nadir Overpasses (SNOs) Predictions

Prediction of SNOs between TERRA and METOP-C Satellite Orbit:

Table of predicted SNOs for the next 14.0 days since TLE Epoch: 10/28/2023
Index Date (TERRA) Time (TERRA) Lat,Lon (TERRA) SZA (TERRA ) Date (METOP-C) Time (METOP-C) Lat,Lon (METOP-C) SZA (METOP-C ) Distance(km) Time Diff (sec)
1 10/29/2023 22:24:57 80.30,-130.65 95.08 10/29/2023 22:24:08 80.30,-130.54 95.08 2.09 49
2 10/29/2023 23:14:17 -80.40, 37.93 84.75 10/29/2023 23:14:46 -80.41, 38.10 84.71 3.26 29
3 11/01/2023 13:46:04 -80.27, 178.78 84.11 11/01/2023 13:45:09 -80.27, 178.82 84.13 0.62 55
4 11/01/2023 14:35:22 80.36, -12.74 96.05 11/01/2023 14:35:45 80.36, -12.77 96.05 0.68 23
5 11/04/2023 05:07:07 80.24, 128.21 96.67 11/04/2023 05:06:06 80.23, 128.18 96.64 0.77 61
6 11/04/2023 05:56:27 -80.34, -63.19 83.16 11/04/2023 05:56:44 -80.35, -63.15 83.15 0.93 17
7 11/06/2023 20:28:13 -80.20, 77.59 82.60 11/06/2023 20:27:07 -80.19, 77.46 82.64 2.71 66
8 11/06/2023 21:17:30 80.32,-113.67 97.61 11/06/2023 21:17:41 80.33,-113.56 97.63 2.26 11
9 11/09/2023 11:49:15 80.19, 27.22 98.15 11/09/2023 11:48:03 80.20, 27.27 98.14 1.24 72



Historial Predications of SNOs between TERRA and METOP-C
